Theta_e
303 304 304 303 302 303 303 303 303 303 303 303 304 304 304 305 305 305 305 306 306 306 306 307 308 308 309 309 311 317 319 318 318 318 320 322 321 320 319 319 320 322 325 330 332 336 338 340 343 344 344 345 342 340 345 346 342 341 345 341 333 334 335 336 343 344 344 346 349 350 349 352 352 350 350 349 349 347 347 349 348 348 348 346 350 352 352 353
305 302 304 304 302 303 303 303 303 303 303 303 304 304 304 304 305 305 306 306 306 307 307 307 307 308 309 308 312 317 318 318 319 320 323 322 325 325 322 319 318 322 325 329 334 337 337 337 341 343 342 342 339 338 344 345 341 342 344 340 336 339 339 337 341 342 343 347 349 351 349 350 351 350 350 350 350 347 350 352 350 350 349 349 351 352 352 352
310 305 302 304 304 303 303 303 303 303 303 304 304 304 304 305 305 305 306 306 306 307 307 308 308 308 308 308 313 316 317 319 321 322 322 322 325 325 324 320 319 323 324 326 329 330 331 332 339 342 339 337 334 337 342 342 342 342 342 342 342 341 338 336 340 340 342 347 350 351 350 349 350 350 350 350 350 348 351 352 350 351 350 349 350 352 352 351
311 309 304 302 305 304 304 303 303 303 303 304 304 304 304 305 305 305 306 306 307 307 307 308 308 308 308 309 314 316 318 322 320 319 321 322 324 324 325 322 320 322 322 323 323 325 324 327 336 337 334 332 330 334 338 340 342 340 340 345 343 339 338 338 338 338 341 347 349 350 350 350 349 349 348 349 349 348 350 350 349 351 350 349 349 351 352 352
311 310 307 303 304 306 304 303 303 303 303 304 304 304 305 305 305 305 306 306 307 307 308 308 308 308 308 309 314 317 319 322 318 319 320 321 323 325 327 324 321 321 322 323 323 323 322 326 332 329 328 330 329 332 335 336 338 338 341 343 341 338 339 338 336 338 343 347 349 349 350 349 349 349 348 349 349 347 347 348 348 349 349 349 349 351 352 352
310 310 309 305 302 306 305 303 303 303 303 304 304 304 305 305 305 305 306 306 307 308 308 308 309 309 308 311 316 319 320 320 320 321 320 322 322 324 327 326 324 322 322 324 325 323 323 326 328 326 326 327 329 332 332 332 335 338 339 337 337 338 339 338 334 338 344 347 349 349 348 348 349 349 347 348 347 345 345 346 348 349 350 350 351 351 350 351
309 309 310 307 303 304 306 304 303 303 303 303 304 304 304 305 305 306 306 306 308 308 309 310 310 309 309 315 319 320 320 321 321 321 322 322 321 324 326 326 326 323 323 325 325 324 323 324 325 325 325 325 328 331 330 330 332 337 338 334 334 335 337 336 335 339 344 347 348 347 347 348 349 349 347 347 346 346 345 346 348 351 353 351 351 350 349 351
309 309 310 309 306 304 305 304 303 303 303 304 304 304 304 305 305 306 307 307 308 308 309 311 311 309 311 317 320 318 318 321 321 322 321 322 322 323 325 328 328 324 325 326 325 324 323 324 323 323 324 324 327 330 329 328 330 334 335 332 331 331 333 335 336 340 345 347 346 346 347 348 348 348 348 346 345 347 347 347 349 351 351 350 349 349 350 352
309 309 309 310 309 306 304 304 303 303 304 304 304 304 304 305 305 306 307 308 309 309 311 312 311 312 314 316 318 317 320 321 321 323 322 322 323 323 324 329 329 326 325 325 325 324 323 323 322 323 324 325 328 330 327 328 331 330 330 330 330 331 333 335 338 341 345 345 346 347 348 349 346 346 347 346 346 348 348 348 349 350 349 350 349 349 351 351
309 309 309 309 309 307 303 303 303 303 303 304 304 304 304 305 305 306 308 309 309 311 313 313 311 313 316 316 317 319 321 320 322 323 323 322 322 323 324 328 328 326 325 324 324 323 323 322 322 324 326 326 328 329 326 328 329 326 330 333 332 334 334 336 339 342 345 345 347 348 349 348 346 347 348 346 347 348 349 350 350 350 350 350 350 350 354 353
309 309 308 309 309 307 304 304 303 303 303 304 304 304 305 305 306 308 309 309 312 315 316 314 312 314 316 318 318 320 321 321 322 322 322 321 321 322 324 327 328 326 324 323 323 323 322 321 324 325 325 327 327 326 326 327 326 326 334 338 336 335 336 338 341 342 344 346 346 348 349 349 347 347 349 347 348 349 350 352 351 351 351 350 350 351 354 354
309 309 308 308 308 308 307 305 302 302 303 303 304 305 305 305 307 309 309 313 319 320 319 316 314 315 317 318 318 321 321 321 322 322 322 322 323 322 323 326 327 325 325 323 322 323 322 322 325 325 324 326 327 327 326 325 329 333 337 340 338 338 339 339 341 342 344 346 346 347 346 348 351 348 349 348 348 350 351 352 351 351 351 351 351 351 352 354
309 308 308 307 307 308 307 305 303 303 303 303 304 304 305 306 308 308 313 321 324 322 319 316 315 317 319 319 321 323 323 323 324 324 324 324 324 323 323 326 326 324 324 324 323 322 322 323 323 322 324 325 327 326 325 328 333 339 340 340 339 338 339 341 341 342 345 345 346 345 335 340 353 349 348 349 348 351 351 353 352 351 352 351 352 351 351 353
308 308 308 307 307 307 306 304 303 303 302 303 304 304 306 307 308 312 321 325 323 321 318 316 317 320 320 321 323 325 325 325 325 326 326 327 325 323 324 326 325 323 324 324 324 322 322 323 321 320 322 323 325 323 326 332 337 341 339 339 340 332 333 344 343 342 347 344 347 344 329 334 351 349 349 349 348 351 352 353 352 351 352 351 352 351 350 352
308 308 307 308 307 306 305 304 303 302 303 304 304 305 307 307 310 319 325 324 321 319 317 318 320 322 322 322 325 325 325 326 325 326 327 327 324 322 324 325 325 323 324 322 321 322 322 322 321 320 321 322 323 323 328 336 340 342 333 330 337 330 332 346 344 342 348 345 347 343 332 336 348 348 349 349 348 351 351 352 351 351 351 351 352 351 350 351
308 307 307 307 307 306 305 304 302 302 303 303 304 306 306 308 317 324 323 321 319 319 320 322 322 322 324 323 324 324 325 325 324 325 326 326 324 322 323 324 324 323 323 322 320 321 321 321 321 320 321 322 322 324 329 332 335 341 333 325 330 330 332 343 344 344 346 347 347 343 338 341 347 348 350 349 349 350 351 352 351 350 350 351 351 350 350 350
307 307 306 307 306 305 304 303 302 302 303 303 305 307 307 315 323 324 322 321 320 321 322 324 324 323 323 322 324 324 325 325 323 324 324 324 324 322 322 321 321 321 321 322 321 321 321 321 320 319 321 322 323 325 322 320 324 333 334 330 331 333 332 335 342 345 344 347 349 346 344 344 347 351 350 349 350 350 352 352 351 351 350 351 351 350 351 351
307 307 307 306 306 304 303 303 302 302 302 304 306 306 312 323 325 322 324 324 322 323 324 324 323 323 321 322 324 323 323 322 321 322 323 324 324 322 321 320 320 320 320 320 321 320 319 319 320 320 321 321 323 325 318 316 323 327 328 328 329 333 334 335 340 345 345 348 348 347 347 345 348 352 351 350 350 350 352 352 351 352 351 351 351 350 351 351
307 307 307 306 305 303 303 303 302 302 304 307 306 307 317 324 323 323 325 324 321 323 326 326 325 323 320 322 321 321 320 321 321 322 324 325 323 320 320 320 320 320 321 320 319 320 319 320 319 318 319 320 322 325 323 322 329 332 332 330 328 328 333 340 343 344 347 348 349 348 346 346 349 352 353 351 350 351 351 352 351 351 351 351 351 350 351 351
306 307 307 306 305 303 302 303 302 302 305 307 305 309 316 319 320 321 320 318 316 317 318 320 322 321 321 320 319 320 320 320 322 322 324 325 323 321 319 318 319 320 321 321 319 319 319 319 318 318 319 321 322 325 327 327 330 337 337 333 332 329 331 341 344 342 347 347 347 350 348 347 350 353 355 351 351 353 352 353 353 352 352 351 351 351 351 351
306 307 306 305 305 303 302 303 302 304 306 305 304 310 313 312 315 314 312 312 312 313 314 314 317 317 318 318 319 320 320 321 322 323 325 324 323 323 321 318 320 322 320 319 318 318 319 317 318 320 320 322 322 323 326 327 330 336 336 331 331 330 331 341 343 340 345 345 345 350 348 347 349 352 354 353 353 353 352 353 353 353 353 352 352 352 351 351
306 307 305 304 304 302 302 302 302 306 307 304 305 310 311 309 309 309 309 310 310 311 312 313 315 314 315 317 317 318 319 319 320 322 324 323 323 325 323 319 322 324 318 316 319 318 317 317 318 320 320 321 322 322 324 327 330 333 333 329 327 330 331 335 339 341 344 343 344 348 346 346 348 350 353 354 354 354 353 352 353 353 354 352 352 352 352 352
306 305 304 304 303 302 302 302 304 309 306 304 306 308 309 308 306 307 309 309 311 312 312 312 313 313 315 316 317 317 318 319 319 321 323 323 323 324 323 321 322 322 317 316 319 316 314 317 320 319 318 320 322 322 325 326 328 330 330 326 323 328 329 326 331 340 343 342 344 346 344 345 348 349 352 353 353 354 353 351 352 352 353 353 352 352 352 352
304 303 303 303 302 303 302 302 306 308 304 304 306 308 310 307 305 307 309 310 313 313 313 314 314 315 316 317 318 318 319 320 320 320 323 323 323 322 323 322 322 321 318 318 319 317 316 318 319 318 317 321 322 323 326 323 323 326 328 326 323 327 329 327 333 340 342 341 344 344 335 336 345 349 351 353 352 354 353 352 352 351 351 352 351 351 352 351
303 302 303 302 302 303 301 303 306 305 303 306 307 309 309 306 305 307 311 315 316 316 317 317 316 317 318 319 319 319 320 321 321 321 323 324 322 322 322 321 321 323 320 316 317 317 318 318 318 318 319 320 322 323 325 322 319 320 325 327 327 329 330 333 337 336 331 331 340 340 326 328 343 349 350 352 353 354 354 353 353 352 351 351 352 351 350 351
302 301 301 301 303 303 303 305 306 303 305 307 309 311 308 305 306 307 313 319 317 319 321 318 319 320 320 321 320 320 321 321 322 322 323 325 323 323 323 320 322 323 318 316 318 318 318 318 318 319 319 320 321 321 323 325 318 315 322 327 328 331 331 334 336 330 323 325 338 340 326 323 333 343 350 353 354 356 354 353 352 352 352 350 350 350 350 350
300 299 300 301 303 304 307 307 305 304 307 307 308 309 305 305 307 308 316 318 315 320 324 319 320 321 321 322 321 321 319 318 323 324 323 324 323 323 324 322 322 320 317 317 317 317 318 318 318 319 319 319 320 319 322 326 318 316 325 328 327 331 332 335 334 327 326 330 336 341 332 323 324 334 351 353 353 356 355 355 354 351 352 350 349 349 349 349
299 298 299 301 303 304 305 307 306 307 307 305 306 305 304 306 307 311 316 315 315 322 324 321 321 320 320 321 322 322 319 319 322 323 324 324 322 323 324 324 324 320 319 319 317 317 318 318 318 320 319 319 319 320 323 324 320 321 327 327 328 330 333 337 332 327 331 330 327 334 334 326 323 332 350 353 351 354 355 355 354 352 352 350 350 348 348 349
298 297 298 300 302 304 305 306 306 308 305 304 305 304 305 307 310 316 315 314 318 322 321 321 319 318 321 322 323 322 322 321 321 322 324 324 323 323 323 323 323 321 319 320 321 320 319 319 319 320 320 319 320 322 323 324 323 323 325 325 327 330 334 338 333 328 329 325 323 329 330 326 323 328 342 347 347 351 355 354 354 352 352 350 350 348 348 349
298 297 298 301 303 305 305 305 307 305 304 305 305 304 306 310 315 318 317 315 318 320 319 320 320 319 321 323 323 323 323 323 322 322 324 324 322 321 320 320 321 322 320 320 323 322 320 321 320 319 320 321 321 322 322 324 324 323 324 326 326 330 334 336 334 330 326 322 322 327 330 326 320 323 337 346 347 350 353 353 353 352 352 351 350 349 348 349
297 297 297 301 304 305 305 307 306 304 305 305 305 305 309 316 317 318 320 318 315 318 321 320 320 319 320 321 321 322 324 324 322 323 324 324 323 321 320 320 320 322 320 318 320 321 320 321 321 321 321 321 321 322 322 324 323 323 327 325 321 323 326 326 327 327 324 321 322 325 331 328 319 321 337 348 349 349 350 351 352 352 351 351 350 349 348 348
297 297 298 300 304 305 306 307 305 305 305 305 305 308 312 316 315 316 319 317 314 318 321 319 320 320 319 319 319 321 324 323 322 323 325 325 324 323 323 324 322 320 317 316 317 317 320 322 321 321 322 321 320 320 321 323 323 325 326 320 316 317 319 319 320 322 321 320 322 325 329 328 323 328 340 347 346 346 347 348 349 350 350 350 350 349 349 349
297 298 299 300 304 305 306 305 305 305 305 305 306 310 314 315 314 315 316 316 315 318 320 319 319 320 319 318 319 320 321 322 323 322 323 324 325 325 323 323 324 322 318 316 315 314 316 320 320 319 321 322 321 318 316 319 322 324 321 317 315 316 317 318 320 321 320 318 321 326 328 325 324 332 343 344 341 343 344 345 346 348 349 350 350 348 348 348
297 298 300 302 305 307 307 308 308 306 306 307 309 311 315 314 317 317 315 316 317 318 319 318 319 319 319 318 318 319 320 321 322 322 322 323 323 324 323 320 322 323 321 317 315 314 313 315 318 319 320 321 322 320 319 322 323 323 325 322 317 316 315 317 318 317 317 318 321 326 327 322 320 330 343 342 339 340 340 341 344 346 347 347 347 347 346 347
298 299 301 304 307 309 312 312 311 307 306 310 308 310 313 313 315 317 316 317 317 318 318 318 319 318 317 319 319 319 320 319 321 321 322 322 322 324 323 321 320 322 321 316 315 315 312 313 319 320 320 321 322 322 323 324 320 322 327 322 317 319 319 317 318 318 316 317 321 324 325 326 329 336 341 339 338 339 338 340 342 343 344 345 345 346 346 346
298 300 302 305 309 311 313 313 311 307 308 309 305 309 311 311 312 315 319 320 318 319 318 317 318 316 315 318 320 320 319 319 321 321 321 322 322 323 324 322 321 321 321 319 318 316 312 314 320 320 319 320 322 322 323 322 318 320 320 317 320 326 324 318 317 321 318 315 320 323 322 325 329 332 339 342 339 340 341 340 340 342 344 345 346 347 346 346
302 304 306 307 310 312 312 312 310 307 309 307 305 308 309 309 312 315 320 320 317 318 317 314 316 316 314 315 318 320 319 318 319 318 318 319 320 322 323 322 321 320 322 322 320 319 315 314 320 321 319 319 321 321 323 323 322 321 316 318 324 324 326 325 319 319 318 315 319 321 318 319 319 323 337 345 340 339 343 342 340 342 345 345 346 347 347 346
304 305 308 310 311 312 311 311 309 308 308 304 306 310 310 309 311 314 316 316 314 316 316 314 316 317 316 315 316 318 318 315 316 317 316 317 319 320 322 322 320 320 321 322 321 322 318 313 316 323 321 320 320 320 320 322 323 321 319 324 323 316 320 325 320 318 317 316 317 319 319 319 316 319 330 336 340 344 346 345 343 341 343 344 344 347 349 347
305 307 309 311 311 310 310 309 309 308 307 305 307 309 310 309 310 313 314 314 314 314 314 315 316 317 317 316 315 317 317 315 316 317 315 317 318 320 322 322 321 320 320 321 322 322 321 315 314 320 321 320 320 317 314 316 320 321 322 324 324 319 319 322 319 316 316 316 316 318 319 319 321 328 333 334 343 351 349 350 348 341 342 345 344 346 348 348
306 306 305 310 311 309 310 310 309 307 306 308 308 307 310 310 310 312 313 313 313 312 313 314 315 316 316 317 315 316 318 317 316 316 316 318 318 319 321 321 321 321 319 321 323 322 323 318 313 318 320 316 317 317 316 316 318 318 318 318 319 320 321 320 320 317 315 316 317 318 316 316 326 339 341 340 345 349 351 353 352 346 342 342 345 346 348 349
306 305 305 310 311 310 311 312 310 307 306 308 307 305 307 309 309 311 311 312 312 312 312 313 315 316 315 316 315 316 318 318 317 318 317 318 318 318 321 320 322 320 317 320 321 320 323 320 315 314 315 313 316 320 321 320 321 319 318 318 318 320 318 316 318 318 316 316 318 318 314 315 329 343 342 345 345 342 346 348 347 347 343 342 345 344 348 350
305 304 304 309 309 310 312 312 312 310 307 308 309 307 309 311 310 309 309 311 312 311 312 313 314 315 314 314 314 315 316 315 315 316 316 318 319 319 321 321 321 320 319 321 320 321 326 325 318 314 315 318 320 322 321 319 323 322 320 323 322 322 317 312 314 317 316 317 318 317 314 317 338 354 343 341 344 341 344 347 344 344 343 343 343 342 346 350
305 305 305 307 308 310 312 312 315 314 310 310 312 311 313 314 313 312 311 311 311 311 311 312 312 312 312 313 313 314 314 313 314 316 316 318 319 319 321 321 320 320 321 321 320 323 327 326 319 315 319 323 321 321 322 320 321 319 319 324 322 321 320 316 321 324 319 316 316 317 314 316 342 371 354 343 346 343 343 344 342 344 345 343 342 343 347 350
305 306 307 308 309 311 313 314 316 316 314 314 315 313 315 315 315 315 314 314 313 312 312 313 313 312 313 313 313 314 314 313 315 316 316 319 320 320 321 319 319 321 321 323 325 323 322 324 321 315 316 318 317 318 319 318 320 318 320 324 321 324 324 321 329 329 320 316 316 316 313 315 341 373 358 345 344 339 338 339 340 344 348 344 342 346 349 351
306 307 307 310 312 312 313 314 313 314 315 316 317 317 317 317 316 315 314 315 316 315 314 316 316 314 314 314 313 314 315 313 314 317 318 319 320 323 324 320 321 321 321 327 329 323 324 329 323 315 314 315 315 316 316 317 320 319 321 323 321 324 323 320 323 320 317 322 322 315 313 320 342 362 351 345 344 341 341 341 339 343 345 344 345 347 350 352
307 308 310 312 313 312 313 312 311 312 313 314 317 318 317 317 317 317 316 317 317 317 317 318 318 318 317 316 316 315 316 315 314 318 321 321 321 325 329 327 325 325 332 340 335 328 334 336 327 321 319 316 316 320 325 324 319 316 319 320 321 323 322 323 320 315 319 325 321 321 324 322 331 346 348 347 347 345 347 346 347 352 348 344 347 348 349 351
307 309 312 314 312 311 312 312 312 311 311 313 316 317 317 318 318 318 318 318 318 319 319 319 320 321 321 320 320 319 318 318 317 317 319 321 320 323 326 328 328 332 344 348 337 333 334 328 325 328 326 323 323 327 329 326 319 317 318 318 320 322 322 322 318 321 332 323 313 330 346 327 325 342 348 349 350 350 352 351 352 357 352 345 346 347 347 348
308 310 311 311 311 311 312 312 311 311 311 313 314 315 316 316 317 319 319 318 317 318 320 321 320 320 322 322 322 322 322 321 321 320 320 321 322 322 322 325 328 333 338 336 332 334 329 320 322 326 324 325 326 325 326 325 322 321 320 319 321 322 322 320 319 328 337 322 313 337 356 336 330 340 342 343 348 349 354 355 349 349 349 345 345 345 346 346
307 308 308 308 309 310 310 310 311 312 313 314 314 314 315 317 318 318 317 317 318 318 319 321 322 322 323 323 324 324 324 321 321 323 324 323 324 324 322 324 327 330 331 329 332 333 326 324 329 324 319 322 324 323 325 324 322 321 321 322 322 322 322 322 323 328 333 326 323 342 355 344 335 336 338 344 349 345 348 349 342 341 345 346 345 346 346 345
305 305 306 306 307 307 308 310 312 313 313 312 312 314 316 318 318 316 315 316 319 319 319 322 323 322 322 325 327 328 327 324 324 327 328 327 327 328 327 328 328 329 330 330 332 331 326 329 336 327 317 319 322 323 323 322 321 319 320 322 323 322 322 322 323 327 329 330 332 338 343 342 338 338 342 349 352 348 345 344 341 343 346 346 346 346 345 346
303 303 304 306 307 307 309 310 310 311 311 310 312 313 314 315 314 313 314 314 316 319 320 320 319 318 319 323 327 328 326 324 324 325 326 326 327 329 329 328 329 332 335 333 331 332 330 330 332 327 318 317 320 322 321 321 321 317 317 321 321 320 320 321 323 328 327 328 332 330 327 332 338 340 340 343 347 346 346 346 347 346 345 344 347 347 347 348
302 303 304 306 307 307 308 309 309 309 310 310 313 313 311 312 311 311 315 316 315 316 317 316 315 315 317 322 326 325 321 318 319 320 322 323 323 324 325 327 327 329 336 340 335 334 335 330 328 325 319 318 322 323 320 319 318 315 317 322 323 322 323 322 324 329 330 329 330 326 325 332 342 343 340 339 341 343 347 349 349 351 350 347 348 349 348 347
Wind_Speed
20 20 19 19 20 21 22 22 22 22 22 22 23 23 23 24 23 23 23 23 22 22 22 23 23 22 22 22 22 22 24 26 24 16 11 17 21 17 19 14 11 17 17 16 20 18 13 9 10 13 10 5 3 3 6 5 3 3 2 2 2 3 5 7 10 7 5 8 12 12 13 11 10 8 5 6 8 11 10 5 5 4 4 9 14 20 23 21
20 20 21 20 21 22 22 22 22 22 23 23 23 24 24 24 24 24 24 24 24 23 22 22 22 22 21 21 20 20 24 24 20 15 13 12 12 13 15 19 14 18 21 20 22 19 12 9 11 13 8 4 3 3 6 5 5 4 1 2 3 4 5 7 11 9 6 10 13 12 13 11 11 10 7 8 10 12 9 6 6 7 9 12 18 23 23 22
21 21 21 21 21 22 22 23 22 23 23 24 24 24 25 25 25 25 25 24 24 24 23 22 22 21 20 19 17 18 20 17 12 8 5 10 11 17 8 17 18 19 21 20 22 19 14 13 16 13 6 4 3 4 4 5 6 4 2 4 5 4 4 5 12 12 8 12 15 13 12 10 11 11 7 8 11 12 9 9 10 10 12 15 19 22 23 23
23 22 21 21 22 22 22 23 23 23 23 24 25 25 25 25 25 25 26 26 25 25 23 22 21 20 19 16 14 15 14 10 6 2 4 13 15 17 9 9 19 20 19 16 16 19 15 14 17 11 5 4 2 3 4 5 4 2 4 6 3 4 5 7 13 13 10 14 15 13 12 11 11 10 8 10 11 10 10 12 13 14 17 17 19 21 23 22
24 23 22 22 23 23 23 23 24 24 24 25 25 25 26 26 26 26 26 27 26 25 24 23 20 19 17 13 11 11 8 5 2 1 6 17 17 13 8 3 14 19 19 16 13 15 13 12 13 7 4 5 3 4 5 6 4 2 5 7 3 5 5 7 12 13 12 13 14 14 13 12 11 9 10 14 12 7 8 11 12 16 18 20 20 21 22 21
24 24 23 23 24 24 23 24 25 25 26 26 26 26 26 26 26 27 27 27 27 25 24 23 19 17 14 9 6 4 3 3 6 12 16 16 14 11 7 5 9 17 20 18 14 13 11 11 12 8 5 5 6 7 4 4 4 4 5 5 5 7 6 6 12 13 13 14 15 15 12 12 12 10 11 16 10 1 1 9 12 15 18 21 22 21 20 19
24 25 24 23 25 25 24 25 26 27 27 27 27 27 27 27 27 27 27 27 27 26 25 23 18 14 10 4 2 1 2 7 17 23 18 11 13 15 7 7 11 18 21 18 15 13 11 12 12 7 6 5 6 7 3 4 5 6 6 5 5 6 8 7 13 14 16 17 16 14 12 15 15 10 10 16 8 4 1 10 14 16 19 21 21 20 20 20
24 25 25 24 25 25 25 26 27 27 28 28 28 28 28 28 28 28 27 26 26 26 25 22 16 10 5 0 0 2 3 12 22 20 11 8 13 18 9 5 15 21 23 21 18 14 12 13 12 6 6 6 5 7 4 3 5 7 8 4 3 4 7 9 13 15 15 13 13 14 14 15 13 9 11 15 7 0 6 14 15 17 19 19 19 20 19 18
25 25 26 25 25 26 26 26 27 27 28 29 29 29 30 29 29 29 27 25 25 25 24 19 12 6 3 2 1 4 6 11 14 9 8 8 13 16 10 4 18 24 22 20 20 16 11 11 11 6 6 6 5 7 5 4 5 7 7 3 5 6 5 11 13 16 14 9 13 16 13 11 9 8 9 11 5 6 10 15 17 17 18 18 18 18 18 17
26 25 26 27 26 27 28 28 28 28 29 29 29 30 30 31 31 29 26 25 25 23 21 15 8 4 5 4 2 5 8 8 7 8 8 8 12 13 8 4 19 24 17 15 17 15 11 9 8 4 3 4 5 5 4 4 2 3 4 1 5 5 4 12 14 14 12 11 16 16 11 9 9 6 7 8 8 10 12 14 17 17 17 17 16 16 16 17
27 26 26 28 27 27 29 29 29 29 30 30 30 30 31 32 31 28 26 25 22 19 15 10 6 7 7 5 4 7 8 8 7 8 9 10 14 13 6 6 20 23 15 12 14 16 11 8 9 3 2 4 6 5 3 3 1 2 6 4 2 3 6 11 14 14 11 9 13 13 11 8 7 7 7 9 11 12 14 15 17 17 16 16 16 15 14 15
27 27 27 29 28 28 29 30 31 31 31 31 31 31 32 32 29 27 25 20 16 12 9 6 5 9 6 3 8 13 13 12 12 13 15 17 16 9 3 8 21 23 17 10 11 18 12 9 12 4 1 6 6 4 2 1 1 4 6 4 4 6 7 9 11 14 11 8 11 12 9 6 10 9 6 12 12 13 14 15 16 16 14 14 15 13 12 14
27 27 27 29 29 28 29 31 32 32 32 32 31 31 32 30 28 25 20 14 10 7 4 2 6 9 4 3 9 13 15 15 16 18 17 17 12 5 3 11 18 19 18 13 13 18 11 8 8 2 2 5 4 2 2 2 3 5 3 3 6 5 6 6 7 12 9 8 15 13 5 8 14 9 8 13 14 14 13 13 14 14 13 13 13 12 12 14
28 28 28 29 29 28 30 32 33 34 33 32 32 32 31 28 26 20 12 8 5 2 1 5 8 8 3 6 11 14 14 12 13 11 10 9 7 7 8 15 16 13 16 14 13 16 12 7 4 3 3 2 2 3 3 3 2 6 4 2 5 3 7 6 6 13 9 6 15 14 8 7 10 10 10 13 15 16 14 14 14 13 12 12 12 12 12 14
29 30 29 30 29 29 32 34 35 35 34 33 33 31 28 27 21 12 5 3 2 2 5 7 8 5 3 9 11 10 8 7 5 3 4 1 9 9 10 17 15 12 12 8 5 8 10 7 3 3 2 0 2 3 4 2 2 4 4 3 4 3 7 6 6 13 9 7 13 12 8 5 5 10 12 13 15 16 15 14 14 13 14 13 12 12 11 12
30 31 30 30 30 31 33 35 36 37 35 34 32 28 26 22 13 5 3 2 1 4 5 4 5 3 4 6 4 3 4 4 2 3 4 1 7 7 11 15 11 10 9 4 2 4 7 6 3 1 2 3 4 4 4 3 3 3 2 4 6 5 6 6 7 10 8 9 13 12 7 3 1 8 13 14 15 16 14 14 15 14 14 13 11 11 11 11
31 31 32 32 31 33 34 36 37 37 36 34 29 26 22 14 5 1 2 3 1 3 5 2 2 2 5 5 4 5 3 3 2 7 8 4 7 10 13 9 4 6 5 3 3 3 3 3 2 1 1 2 4 6 6 4 5 4 2 3 4 5 7 7 8 9 9 11 14 14 9 5 2 6 12 15 16 16 14 14 15 14 13 12 11 11 11 11
31 31 32 32 33 34 36 37 37 37 37 30 26 24 15 6 2 1 3 3 2 2 3 2 1 2 4 3 3 3 2 5 11 14 10 2 8 15 13 7 6 8 7 4 3 3 2 1 1 3 4 4 5 8 8 6 7 7 6 5 4 5 8 9 8 9 13 13 14 14 13 12 4 6 11 14 15 16 14 13 13 14 13 12 12 12 12 12
31 31 31 32 34 35 37 37 36 37 33 25 23 19 7 2 2 2 2 1 1 3 2 1 3 3 5 4 5 6 8 11 13 11 3 5 11 12 8 7 9 8 6 4 3 4 3 2 3 5 6 7 8 10 10 8 10 12 10 8 8 8 8 8 5 8 14 12 13 15 14 15 8 7 11 12 14 14 13 12 11 12 13 12 12 12 12 13
31 31 30 32 34 36 38 36 37 35 24 22 25 14 2 2 2 1 1 3 5 6 8 6 6 7 10 9 6 7 10 8 6 4 4 8 12 10 3 4 6 4 5 6 5 4 4 6 7 7 9 11 12 11 9 6 8 12 11 9 10 9 7 8 6 8 14 10 11 14 11 10 5 5 10 11 13 14 13 13 12 12 12 12 13 13 14 14
33 32 32 34 35 39 38 35 39 29 15 22 23 6 1 3 2 3 5 6 8 8 12 13 11 13 15 10 5 4 5 4 5 5 7 10 13 10 3 3 6 5 4 4 4 3 4 8 9 9 10 11 12 10 7 5 5 9 10 8 9 8 5 7 7 9 12 10 9 8 9 10 5 4 9 11 13 15 16 16 15 15 14 12 14 15 15 13
32 32 34 36 38 41 36 37 37 18 10 22 15 2 3 4 3 3 4 7 9 9 13 14 11 15 17 15 13 5 2 5 7 7 9 9 7 7 4 4 7 6 4 4 4 4 6 9 9 8 7 7 6 6 8 7 7 7 7 7 7 6 3 3 6 8 10 9 7 6 10 11 4 4 9 13 15 14 15 16 14 15 14 13 14 15 14 13
32 33 35 36 41 41 36 38 27 7 15 24 9 1 3 4 8 4 4 6 9 6 9 12 9 11 12 11 12 11 9 9 7 7 12 12 6 5 7 6 7 5 6 8 7 7 6 7 8 7 6 8 6 6 9 7 6 6 6 7 6 6 6 5 7 9 10 6 3 5 8 8 4 5 9 13 14 12 12 14 13 13 14 15 16 14 14 15
33 34 35 38 42 40 38 33 13 5 24 23 4 4 5 4 14 4 4 4 7 5 6 8 6 8 8 5 8 14 10 7 6 5 11 14 6 5 7 6 6 6 6 9 9 8 5 2 6 9 8 11 9 8 10 7 6 5 6 8 5 7 8 5 5 8 7 3 3 6 6 8 7 9 10 11 13 13 12 14 14 14 15 14 14 14 14 16
35 35 37 41 41 40 39 23 5 15 29 15 5 7 3 10 17 4 4 2 5 5 3 5 3 6 6 3 8 11 6 5 8 6 9 13 10 6 5 4 4 7 7 8 7 8 6 0 7 12 9 11 10 9 11 10 7 5 7 9 7 10 8 5 10 9 5 4 7 9 6 7 7 11 12 8 11 15 13 14 16 15 15 15 14 14 14 15
36 36 39 40 39 42 33 10 8 25 24 4 7 6 4 17 18 3 4 2 4 3 0 3 3 5 5 5 7 7 5 4 7 7 8 11 12 7 5 4 1 4 7 6 4 4 4 3 7 11 12 12 11 9 11 11 8 6 7 9 9 9 9 11 13 10 5 4 7 12 11 7 4 9 12 10 11 15 14 15 18 15 15 16 15 15 15 15
38 38 40 40 38 36 21 7 18 23 9 2 3 5 12 19 12 3 3 2 3 2 0 1 1 4 4 5 8 6 3 1 2 8 11 13 11 4 5 7 2 2 5 4 3 3 4 6 5 8 11 12 11 9 10 11 9 5 5 11 12 10 11 14 13 10 5 2 4 10 9 6 6 5 7 11 12 13 14 17 18 17 18 18 18 17 16 16
40 40 40 39 38 30 13 13 19 11 3 3 5 10 16 14 4 4 1 2 1 0 1 1 1 3 2 3 8 4 2 0 1 3 9 12 9 2 6 11 8 7 7 6 6 2 4 9 8 9 9 9 9 8 10 13 10 3 4 9 12 11 12 14 12 8 4 2 4 7 5 4 7 2 4 9 11 12 17 19 20 20 20 20 19 20 19 18
41 41 39 40 39 27 11 10 13 9 9 10 9 13 16 7 3 3 1 1 1 1 1 1 1 2 2 2 7 6 4 1 1 1 5 8 6 2 4 9 10 11 9 9 9 3 3 7 9 11 9 7 8 5 10 15 8 3 7 7 5 5 7 8 8 5 4 5 6 8 9 6 6 3 5 6 8 13 16 17 19 20 20 20 19 20 20 17
43 41 40 40 34 22 10 12 18 13 10 9 10 15 12 1 3 2 2 2 2 0 1 1 1 1 2 3 4 6 6 4 1 3 5 5 5 2 1 3 6 9 7 6 9 5 2 1 4 8 7 7 7 3 8 13 8 9 10 8 7 4 3 2 1 2 4 6 6 10 15 10 7 4 7 6 8 12 13 12 14 17 19 20 18 18 18 16
43 41 40 38 29 16 7 10 14 7 2 5 12 13 5 2 2 4 4 2 2 1 1 1 1 1 1 1 2 3 6 5 2 5 5 5 5 4 4 4 3 5 6 6 6 3 4 4 3 4 4 6 7 5 6 5 6 10 8 7 6 4 3 3 2 2 5 6 5 8 13 12 10 6 6 8 11 11 12 12 14 18 20 20 18 18 18 16
44 42 39 36 27 15 12 12 12 5 3 8 12 6 3 2 3 5 2 1 2 1 1 1 1 1 2 2 2 2 3 4 5 7 8 8 7 7 9 7 7 6 6 7 6 3 7 8 3 3 4 8 9 7 5 3 5 8 6 8 7 3 4 4 3 4 5 5 1 4 9 9 9 9 7 8 11 13 13 14 14 16 17 18 18 18 16 15
44 42 37 33 26 19 20 18 16 15 13 11 7 1 3 4 5 6 5 3 2 1 1 1 1 2 4 4 2 2 2 2 5 7 8 8 8 9 7 6 11 9 4 6 8 5 6 5 4 7 4 7 12 10 7 6 6 9 8 9 8 6 6 6 3 1 3 4 0 4 8 6 5 8 11 13 17 17 13 14 14 9 9 12 15 16 15 14
44 40 36 31 23 17 14 12 11 11 10 6 2 2 5 6 3 5 9 7 2 2 0 1 3 4 3 3 3 2 2 0 2 5 7 7 8 9 6 4 10 8 3 5 7 7 9 6 7 11 4 6 13 12 8 7 7 9 8 7 7 6 5 5 4 4 4 2 2 5 6 6 4 2 6 12 14 12 9 12 12 8 6 8 11 14 15 16
42 37 34 25 14 8 6 6 6 6 6 5 4 4 8 7 2 3 6 6 3 4 2 1 4 6 4 2 1 1 2 0 2 2 6 7 7 9 8 7 9 7 5 6 4 5 10 7 5 7 4 7 11 8 6 8 7 7 5 7 8 6 5 3 2 3 3 1 2 5 4 4 3 5 7 8 8 9 9 10 11 11 10 9 10 14 16 16
43 37 27 16 10 9 8 7 6 10 9 4 5 7 7 4 2 3 3 3 3 2 2 1 2 4 5 2 1 0 2 1 1 1 4 5 5 8 10 8 10 12 9 7 3 3 7 6 4 4 4 7 10 8 8 8 6 4 5 8 4 3 5 4 1 1 1 4 4 4 4 3 2 7 9 7 8 10 10 8 11 12 11 11 11 13 15 15
39 30 18 12 13 12 9 6 10 13 7 4 7 7 5 3 3 3 2 1 1 1 2 3 3 3 3 2 3 1 2 2 0 1 1 3 4 6 9 7 10 14 13 10 5 3 5 5 6 9 11 10 7 7 10 10 6 4 7 8 5 2 2 2 3 3 3 8 4 4 7 6 3 4 3 3 7 11 11 10 10 8 11 13 13 13 15 16
28 18 10 9 11 9 4 4 12 11 4 5 8 7 5 5 4 3 2 1 1 1 3 5 3 2 2 2 3 1 3 2 0 2 1 3 3 5 8 6 9 14 16 14 7 3 5 5 4 9 13 10 5 6 10 10 5 1 4 9 6 3 4 2 4 5 5 7 4 4 7 6 5 5 3 5 7 9 11 8 8 10 12 13 13 14 15 15
17 8 4 3 7 8 4 8 9 5 3 7 9 6 5 6 5 3 3 2 2 2 3 4 3 2 3 2 2 1 2 3 2 2 2 3 2 4 6 5 8 14 17 16 9 4 5 7 4 5 6 6 6 7 10 10 6 0 3 7 3 3 5 4 4 4 6 7 4 5 5 4 6 5 6 10 9 8 11 7 7 11 13 13 12 13 13 14
7 3 2 2 7 10 10 8 4 3 5 5 6 5 3 4 5 4 5 4 3 3 3 4 4 4 4 3 3 3 2 4 4 3 2 3 2 3 5 4 6 9 12 14 10 5 5 6 5 3 2 4 6 8 11 12 9 5 7 8 4 2 1 3 3 2 4 6 5 6 6 4 4 5 8 12 11 10 11 9 8 10 12 14 13 12 12 12
4 2 0 4 7 9 6 3 3 3 4 3 3 4 3 4 4 4 4 5 5 5 3 4 6 5 4 4 4 3 3 4 5 4 4 4 4 4 5 6 6 6 7 9 8 6 5 5 6 4 4 7 8 8 12 14 12 10 9 9 9 7 4 5 7 3 2 4 4 5 7 5 5 5 8 10 11 11 10 8 8 8 9 10 10 11 12 11
3 2 3 2 2 0 2 4 4 3 4 4 2 4 5 5 5 5 5 4 6 5 3 4 5 5 5 5 5 4 4 5 6 6 5 6 8 6 3 3 5 7 6 6 8 9 4 3 6 7 7 9 8 6 8 11 12 13 12 10 11 9 8 10 9 4 3 3 1 1 6 4 4 4 8 10 10 9 6 5 7 9 7 5 7 10 11 11
2 5 9 8 6 5 3 3 3 3 5 5 5 6 5 4 4 4 4 4 5 5 4 4 6 7 7 7 7 7 7 7 8 9 8 7 10 10 7 3 4 4 4 4 7 8 5 2 5 7 6 5 4 2 2 2 7 11 12 12 12 12 12 11 6 4 5 6 4 3 5 4 3 2 4 7 7 7 5 5 8 10 6 3 6 9 10 11
4 6 8 6 4 6 3 3 3 3 4 5 7 8 7 6 5 6 6 5 4 4 4 5 6 7 7 8 9 9 8 7 8 10 10 7 6 7 9 8 4 3 5 5 4 6 5 4 5 6 6 5 6 7 5 4 5 8 8 9 12 15 15 7 1 2 5 9 10 8 6 5 3 1 1 5 7 9 10 8 8 8 6 3 5 7 9 9
5 4 4 4 3 6 3 2 2 2 4 5 6 7 7 7 7 9 10 8 6 5 4 4 5 6 7 7 8 9 10 9 7 7 7 7 4 3 5 8 6 6 8 8 6 6 5 5 6 8 9 9 9 9 7 5 5 4 5 7 10 15 16 7 2 5 7 6 9 9 6 4 2 1 3 4 6 9 12 10 7 7 8 6 6 7 8 9
4 3 3 3 2 4 3 1 2 2 4 5 5 5 6 7 6 7 10 10 10 9 7 6 5 5 7 9 9 9 11 12 10 7 6 6 4 2 1 3 5 8 11 11 9 7 2 3 9 11 10 10 10 8 6 6 7 7 9 11 11 13 14 10 6 8 5 4 6 8 6 6 6 6 6 7 8 9 11 10 8 8 8 7 7 7 7 7
2 2 2 3 3 2 1 1 2 4 5 5 4 3 5 7 6 4 8 8 7 9 9 7 8 8 8 9 10 10 11 12 12 12 10 8 6 5 3 4 4 7 9 8 9 8 2 5 11 14 13 14 14 13 10 11 13 13 14 15 15 15 16 15 12 8 6 5 8 8 6 9 10 9 9 10 9 9 10 10 9 7 6 6 6 6 7 8
2 2 2 4 3 3 2 3 6 8 8 5 3 5 7 9 8 5 4 3 3 6 7 6 10 12 11 9 8 7 8 9 11 11 9 8 8 8 8 6 5 5 5 4 6 6 3 7 10 13 15 16 18 17 12 12 14 15 16 17 17 17 18 17 16 11 8 8 11 8 8 11 10 9 11 11 11 12 11 9 7 4 3 5 7 9 10 11
3 3 3 4 3 4 6 8 9 9 8 5 4 5 7 10 8 5 3 4 4 5 7 7 8 7 7 6 5 5 6 7 8 7 6 8 8 7 7 6 5 3 3 3 3 3 2 5 6 10 14 16 18 17 12 12 14 14 16 17 17 19 20 20 19 16 14 13 12 9 11 12 11 11 11 10 9 9 6 4 4 5 7 8 10 12 12 12
3 3 3 4 4 6 7 7 7 6 6 6 5 5 6 7 5 6 5 5 5 2 5 6 3 3 4 4 4 7 7 5 5 4 4 6 7 5 5 4 2 2 2 3 1 1 2 2 2 5 9 12 14 14 13 14 15 16 16 16 15 16 18 18 17 14 13 12 9 7 9 9 8 8 7 4 2 2 4 6 8 8 8 9 11 12 12 13
3 5 4 4 5 6 5 5 5 5 5 4 4 3 4 4 5 9 8 7 9 7 3 1 5 7 5 4 6 7 4 3 7 8 7 7 6 3 3 2 2 1 1 3 2 3 3 1 1 3 5 7 8 11 13 15 16 18 19 18 15 13 12 13 11 9 11 10 8 7 6 6 6 6 6 5 3 4 8 10 9 8 8 11 12 12 12 12
4 5 4 4 5 5 5 5 4 4 4 2 2 4 5 5 7 10 7 4 7 8 4 7 9 7 5 5 5 3 4 7 10 12 10 9 10 8 6 5 4 3 1 2 1 4 4 2 2 0 4 5 3 5 8 9 10 12 15 17 16 13 11 11 9 10 11 11 9 8 7 7 7 5 6 7 8 9 10 9 7 7 8 11 12 12 12 12
Wind_Direction
355 354 356 357 356 355 354 353 353 353 353 351 351 350 349 348 346 343 341 340 339 338 335 332 333 332 331 331 328 327 326 322 320 315 287 292 304 288 262 254 224 197 186 169 155 147 151 162 147 151 155 168 211 173 176 188 190 195 203 238 237 215 200 182 182 173 147 159 164 169 173 162 155 162 138 134 138 141 148 131 123 100 89 131 129 140 149 153
354 353 352 353 353 352 352 351 351 351 350 349 348 347 347 346 344 341 339 336 335 334 333 330 328 329 328 328 327 327 327 322 314 295 289 316 344 328 264 236 220 193 181 172 165 154 152 168 156 155 161 173 199 172 165 173 187 196 177 223 244 222 198 185 178 168 161 164 163 170 173 167 160 157 160 164 152 153 153 133 129 112 112 124 131 143 152 157
352 352 351 350 350 350 351 350 349 349 349 347 346 345 344 344 342 340 336 333 332 330 330 327 325 326 324 326 326 329 329 321 308 282 329 20 4 349 310 217 208 192 187 185 180 177 174 166 160 160 172 199 185 181 185 166 183 208 210 236 246 213 204 192 177 176 172 157 159 168 169 169 160 154 175 176 160 171 173 154 156 149 140 140 142 149 156 161
350 349 350 349 348 348 349 349 348 348 347 345 344 343 342 341 340 338 334 330 328 327 327 325 324 321 320 325 323 332 332 307 293 202 49 8 344 345 350 207 202 198 196 196 192 197 192 159 160 167 178 204 187 193 203 175 178 181 203 240 244 179 204 200 184 179 166 158 160 160 162 168 160 158 176 164 162 192 200 182 172 163 154 149 150 155 161 165
348 347 348 348 347 346 347 348 348 347 346 344 342 341 340 339 337 335 332 328 325 325 324 322 321 318 318 320 322 337 333 301 310 184 337 345 342 337 332 219 201 202 193 191 188 193 187 148 157 177 189 196 180 191 209 189 181 180 217 249 233 176 209 193 180 174 157 155 153 157 168 162 156 170 179 171 175 197 202 194 174 160 156 154 154 157 162 167
347 345 345 347 348 345 346 347 346 347 345 343 341 339 339 337 335 332 330 327 323 322 321 321 319 316 313 313 327 337 307 288 299 298 309 330 350 349 307 238 200 195 190 187 174 174 173 153 167 184 193 196 185 193 203 170 186 230 228 252 232 206 227 179 166 169 152 154 160 166 166 147 158 181 182 186 196 291 191 178 161 154 157 154 154 158 164 170
346 345 343 345 347 345 345 346 346 345 343 341 339 338 338 335 332 329 327 325 322 320 319 319 317 312 307 320 348 309 235 249 277 293 302 320 352 359 328 228 199 185 185 181 165 169 172 169 182 180 182 190 190 201 191 136 183 235 236 253 249 225 233 183 162 170 160 164 165 157 155 158 175 177 176 195 211 329 161 156 150 149 155 156 157 164 169 172
346 345 342 342 344 345 345 345 345 344 342 339 337 337 336 334 331 328 325 322 319 317 316 316 314 304 291 77 144 292 229 252 279 289 286 307 342 354 358 196 191 180 180 180 168 169 170 175 183 169 189 195 183 190 173 156 186 220 235 248 255 245 231 186 164 170 165 162 150 148 165 174 175 153 171 198 200 104 152 143 145 150 155 161 164 168 171 174
345 344 342 340 341 342 343 343 344 343 340 338 335 335 334 332 330 327 323 319 317 314 313 313 305 284 231 145 113 282 259 265 280 266 251 300 339 348 355 179 185 179 181 182 169 166 171 180 184 178 199 190 176 179 174 211 202 205 226 255 263 262 217 178 166 166 160 148 148 155 170 170 153 137 176 201 171 132 146 142 147 154 160 167 168 171 173 175
344 343 341 340 339 340 341 342 343 342 340 336 334 334 333 331 328 324 321 318 316 312 311 309 287 231 188 169 182 265 278 284 260 236 257 303 338 340 331 202 182 181 180 178 170 168 176 181 181 190 207 173 171 171 163 202 191 166 197 290 273 258 183 170 160 159 152 151 164 160 160 161 152 166 198 192 161 146 148 149 152 158 166 169 171 174 176 179
343 343 341 339 338 339 339 340 342 342 339 335 333 332 331 329 326 322 320 317 316 312 308 301 263 201 176 175 216 253 277 281 257 256 275 297 320 325 304 204 181 183 179 174 176 174 181 177 164 164 214 167 162 170 186 206 33 142 160 84 51 125 142 162 154 157 149 153 171 148 134 146 161 211 213 165 160 158 154 156 160 164 169 171 174 175 178 184
342 342 341 339 338 338 338 338 341 341 337 334 332 331 330 327 324 320 319 319 315 310 304 290 226 179 163 187 228 253 270 274 278 282 282 290 301 308 291 192 178 183 182 173 179 182 182 163 164 167 175 161 151 166 208 199 86 160 164 103 105 114 133 154 153 163 156 152 160 130 119 170 195 214 175 147 158 162 160 162 165 168 170 173 176 177 181 187
342 341 341 339 338 337 336 337 341 341 337 333 331 331 329 325 322 320 319 318 312 308 302 236 178 164 165 233 237 266 279 276 282 284 282 286 279 253 192 178 174 183 188 180 180 189 180 146 157 134 151 175 154 149 119 109 130 153 162 131 137 129 151 157 152 164 155 149 159 152 176 213 207 202 138 148 161 159 166 168 170 172 172 175 178 182 185 188
341 341 340 338 337 337 336 337 340 340 336 333 331 329 327 324 320 319 319 317 318 307 157 144 154 155 179 258 268 286 285 275 281 285 291 281 221 181 171 172 171 182 190 184 183 193 184 145 113 103 168 220 140 136 112 105 148 148 141 149 161 172 165 152 158 169 158 158 173 181 224 226 201 186 151 160 165 163 173 175 176 176 175 180 181 185 188 190
342 341 340 338 337 337 337 338 340 340 336 333 331 329 326 321 318 320 325 332 356 140 129 127 148 156 268 274 282 291 270 257 278 308 334 247 165 165 180 179 179 188 194 189 177 186 179 154 131 157 167 116 165 162 134 126 130 149 162 177 200 210 158 150 177 182 169 167 186 193 225 246 196 173 164 168 171 172 178 177 180 180 179 183 183 189 192 192
341 340 339 338 337 338 337 338 341 340 336 332 330 328 324 319 316 327 2 37 100 139 118 122 168 183 292 287 291 287 247 229 241 9 4 136 174 180 177 175 176 188 201 201 130 128 153 156 156 179 133 153 188 170 145 149 151 180 231 184 193 197 162 161 180 196 177 154 186 206 226 258 179 169 168 171 177 179 182 182 183 183 182 184 185 190 193 193
340 339 340 339 338 339 338 339 341 340 335 333 331 328 323 316 304 357 60 83 99 142 120 104 158 199 267 271 279 276 255 228 288 330 324 294 226 185 158 154 149 154 161 148 138 113 129 162 158 152 161 167 176 170 173 185 173 187 230 197 205 193 171 164 168 194 183 162 188 210 230 244 123 160 176 176 181 184 187 187 185 186 186 186 188 191 195 197
340 338 339 339 338 339 339 339 341 340 335 333 335 331 323 309 274 122 97 77 65 154 135 96 136 232 247 238 272 275 272 295 312 315 315 330 189 175 148 133 133 136 132 115 142 174 165 179 194 175 173 175 173 183 191 185 180 187 193 198 205 197 191 180 167 178 180 184 196 199 224 236 191 154 184 184 183 189 193 191 188 189 189 189 191 194 197 200
339 338 339 338 338 339 339 339 340 339 335 337 343 336 324 311 285 161 137 49 83 224 247 179 182 266 289 274 273 283 291 297 306 299 282 116 161 169 133 120 128 132 148 148 161 186 174 148 195 191 183 184 182 192 199 186 185 190 195 203 193 190 198 180 146 159 174 189 204 200 218 229 204 164 187 190 189 195 197 193 193 194 194 193 194 198 201 204
339 337 338 337 337 339 338 338 340 338 338 346 347 342 351 354 305 175 288 249 224 246 268 251 218 260 281 281 290 308 300 280 272 254 177 141 152 157 127 116 121 127 164 168 164 171 184 189 199 197 183 179 183 192 193 180 190 192 193 210 206 196 188 168 132 147 172 191 215 215 233 242 220 176 188 192 194 200 201 199 199 198 197 198 198 201 204 208
338 337 337 338 338 338 338 338 339 336 340 351 349 348 70 11 352 335 320 274 243 231 251 248 226 243 258 265 287 355 342 272 242 231 179 150 145 158 190 152 149 170 167 152 136 128 195 207 203 193 183 179 184 186 166 147 184 193 192 204 213 207 188 167 153 149 169 197 219 221 251 256 244 197 194 194 200 205 204 202 203 201 199 200 202 205 206 207
337 337 337 338 339 338 338 338 338 332 342 352 355 52 79 51 23 302 285 295 270 219 235 246 234 251 258 258 257 251 279 262 254 235 189 163 157 174 185 167 175 176 146 143 142 158 204 217 200 183 181 171 168 177 170 166 174 186 196 203 210 198 144 143 167 154 162 199 218 202 237 248 235 213 205 202 208 213 210 206 206 203 201 203 205 206 207 204
336 337 337 339 339 337 337 339 339 338 346 346 341 114 102 57 7 304 219 292 284 228 226 239 237 251 258 259 237 207 212 230 241 232 186 176 182 176 166 172 183 161 152 180 189 187 199 217 194 167 164 164 150 172 173 165 177 184 190 204 207 170 176 201 187 170 166 188 202 178 233 253 222 215 217 213 215 218 219 214 213 209 207 209 208 206 205 203
337 338 338 339 339 337 338 339 339 340 342 341 294 157 129 358 354 349 205 271 281 266 227 220 224 237 252 268 193 185 201 210 217 221 176 172 156 151 172 165 167 169 173 187 197 206 208 214 168 157 172 182 167 167 173 171 187 198 200 208 195 160 191 211 148 156 160 150 141 155 238 259 211 215 223 212 214 220 221 216 217 217 216 218 216 212 208 205
338 339 339 340 340 337 337 338 334 332 337 342 177 157 131 334 344 343 211 281 273 275 234 199 211 225 228 196 166 176 191 211 223 213 170 173 155 139 171 152 172 191 177 173 188 220 227 150 153 163 177 191 179 174 185 186 184 202 216 216 200 175 177 141 133 147 164 207 194 174 235 259 196 213 225 198 202 218 218 217 220 218 217 221 220 217 214 211
338 339 340 341 340 338 341 343 324 329 331 336 173 182 308 329 336 302 201 323 270 263 221 181 194 203 190 157 160 169 173 214 228 202 183 184 163 143 162 151 207 196 162 159 178 236 224 161 168 174 173 184 192 192 190 189 190 204 202 199 202 184 163 150 155 166 184 217 195 186 221 254 195 211 217 194 202 216 214 219 223 218 215 217 218 217 214 212
339 339 339 340 339 341 344 312 314 325 322 180 200 255 308 322 326 215 197 317 265 239 152 202 195 195 187 169 171 171 180 234 179 183 194 193 174 166 189 169 158 162 137 146 199 218 179 166 183 189 180 184 196 198 186 188 200 200 167 179 187 180 169 165 169 182 190 126 157 189 217 262 252 231 196 191 206 218 219 223 224 220 217 216 216 217 214 212
338 338 338 338 336 334 324 290 306 314 259 277 291 294 312 320 300 191 241 312 240 102 163 210 192 183 159 161 190 211 311 274 165 188 192 193 187 196 201 182 168 160 150 176 207 180 156 185 191 187 190 196 198 189 171 182 203 199 147 175 181 181 179 176 182 190 172 151 187 195 198 247 251 249 137 187 206 220 224 223 223 221 218 217 215 214 214 214
337 336 336 336 331 329 322 276 276 284 290 296 302 314 324 325 200 197 292 246 228 27 133 179 164 162 92 139 212 255 305 256 292 72 157 188 210 234 200 181 165 163 164 193 215 203 166 201 196 188 196 204 202 183 166 183 201 140 129 138 139 159 169 177 197 177 142 207 215 187 184 216 252 213 143 180 212 225 227 222 222 220 217 216 215 213 213 213
336 334 335 334 327 324 325 273 270 291 303 295 318 330 327 290 178 205 194 213 287 4 161 201 165 167 125 151 219 242 243 259 325 119 138 170 208 230 115 125 149 163 165 203 220 216 208 204 176 195 209 197 192 186 182 188 169 132 132 119 96 93 119 129 195 133 157 222 224 192 188 207 257 225 162 186 214 217 219 221 221 219 217 217 215 212 210 209
334 332 333 329 318 306 300 273 279 313 358 313 334 331 304 177 187 218 194 221 298 206 179 220 152 116 154 166 289 236 219 247 201 153 158 170 186 175 141 124 135 166 172 199 210 211 235 225 170 205 217 180 182 194 204 198 154 149 147 138 128 107 124 116 83 172 205 224 225 205 193 203 243 243 180 206 224 218 216 222 218 213 214 214 212 210 208 206
332 332 330 324 313 284 252 264 278 275 258 310 329 318 211 184 229 218 190 283 263 185 138 166 147 342 297 248 242 222 220 235 197 174 171 177 186 181 181 177 165 178 193 194 189 192 227 224 206 230 206 181 190 192 188 195 184 182 163 158 169 164 169 181 180 195 217 227 221 175 185 201 242 254 241 232 240 236 227 228 226 217 213 211 208 207 205 201
332 332 329 323 314 283 266 276 272 260 269 288 306 290 186 227 226 187 187 218 214 65 90 159 200 280 288 295 271 235 246 220 193 188 175 176 188 190 199 189 173 183 194 185 189 192 208 227 222 225 217 185 195 198 188 180 191 195 173 169 185 177 182 196 181 182 228 232 174 142 179 208 248 252 246 241 246 244 230 232 239 231 217 212 208 206 204 203
332 333 329 323 315 296 286 286 266 254 262 257 220 169 199 226 224 174 200 218 250 340 172 152 315 299 276 296 314 296 258 201 159 189 181 172 188 197 207 199 186 185 144 169 196 197 205 221 203 204 199 174 198 213 199 163 177 199 183 184 198 180 191 203 182 203 212 195 114 140 178 207 195 223 237 235 254 263 241 234 233 226 219 210 204 204 204 205
332 335 331 325 321 319 314 294 265 213 185 178 171 199 208 211 199 174 207 222 249 286 275 76 334 313 297 253 297 314 242 310 66 193 197 180 189 195 191 194 195 185 157 180 194 187 212 230 193 195 198 176 195 209 173 157 183 198 175 200 208 178 178 198 191 205 185 155 169 170 210 224 215 309 287 247 265 271 249 234 221 215 208 193 193 199 201 203
334 338 334 328 331 326 310 289 235 183 175 179 187 210 218 211 183 180 196 207 208 242 288 300 271 269 272 240 182 196 259 290 58 217 208 194 207 195 186 188 187 186 184 189 181 161 210 225 169 179 218 199 195 180 174 192 193 160 180 205 200 151 176 186 178 82 133 233 205 170 231 240 242 283 272 247 252 253 245 232 221 214 195 189 196 196 198 200
335 337 328 320 330 327 310 274 198 179 175 193 202 214 221 213 212 210 203 191 192 141 184 235 224 215 238 225 173 162 314 314 24 314 209 199 231 195 188 191 181 189 194 193 207 194 205 216 173 186 211 212 203 188 199 208 179 155 199 182 108 55 210 194 211 173 187 232 216 166 224 229 209 248 262 248 248 249 244 226 215 203 187 199 206 195 194 198
328 322 301 306 337 344 321 204 179 175 172 204 220 233 216 209 218 218 210 157 173 129 178 211 221 209 225 219 177 169 328 323 337 332 247 208 236 185 186 189 180 192 197 197 214 201 197 226 194 196 209 195 163 194 215 209 186 233 201 160 140 201 191 163 216 196 198 229 220 183 218 230 219 218 243 253 253 260 255 224 189 197 200 207 210 199 195 195
321 308 293 342 23 32 92 151 159 177 200 200 218 229 209 217 229 226 229 213 184 194 215 222 223 228 218 205 212 220 315 307 285 309 251 209 227 183 186 196 192 197 194 192 199 164 178 224 213 191 206 175 155 195 216 207 191 31 166 168 189 226 185 179 197 185 206 226 224 206 209 212 216 211 220 237 244 254 257 241 201 208 209 209 209 199 194 193
325 303 297 57 69 75 103 133 148 210 219 205 216 220 197 222 236 237 232 226 222 216 224 222 213 225 226 228 265 259 260 267 253 257 231 204 231 210 199 204 196 196 192 191 193 172 168 217 222 167 137 179 188 198 213 210 194 188 194 189 191 192 166 200 194 167 212 218 210 223 227 198 192 208 216 227 236 238 243 244 231 220 212 211 208 197 191 190
320 294 239 106 99 91 99 181 199 200 232 248 231 225 236 242 247 264 243 216 223 234 238 223 210 214 226 232 244 233 233 252 238 235 235 219 233 229 210 207 182 154 162 184 200 199 175 195 214 191 170 204 207 194 209 218 206 197 203 197 192 187 168 201 211 186 202 220 199 221 241 216 175 198 213 221 232 235 236 240 246 244 227 215 207 200 194 187
300 279 296 311 241 211 334 249 213 200 236 250 265 251 258 261 253 259 250 208 213 228 230 227 216 212 224 234 237 225 234 253 240 236 242 230 232 237 229 196 165 147 152 185 202 198 172 167 211 216 214 216 210 183 202 225 215 205 207 203 201 200 193 208 217 177 170 218 137 204 250 228 168 192 214 222 233 242 244 245 256 261 248 215 202 203 196 189
287 285 302 308 254 230 269 250 219 220 226 245 282 273 260 263 253 248 237 209 209 212 204 214 217 220 224 225 231 228 226 242 241 233 238 238 234 237 238 204 144 146 183 200 194 183 156 151 206 222 236 237 230 186 152 230 216 211 213 204 202 208 211 218 216 167 190 197 161 198 238 208 164 173 223 242 256 265 262 240 243 257 261 213 201 200 191 190
299 278 293 312 218 201 241 268 245 249 255 274 281 270 261 258 254 252 244 229 214 197 203 211 208 219 225 216 223 223 206 219 236 228 229 235 228 235 241 235 217 197 208 203 177 173 177 185 197 211 228 233 225 213 204 203 206 215 217 206 207 211 211 214 118 149 217 197 185 214 228 192 173 133 210 251 258 259 258 243 234 252 260 226 206 198 189 188
304 264 260 288 214 198 235 304 337 311 314 317 295 273 262 250 242 242 243 246 242 225 226 230 215 224 228 215 224 227 211 219 239 230 222 224 229 250 247 235 222 214 226 218 183 174 190 189 187 201 216 220 218 216 214 199 193 216 213 201 211 211 205 192 151 211 222 188 189 220 225 183 183 213 224 240 242 248 254 247 235 244 245 226 209 200 191 187
314 288 275 299 224 208 237 286 17 357 347 336 308 277 258 253 251 238 233 237 237 231 236 243 231 234 236 230 237 238 226 228 234 236 236 230 230 235 201 218 216 222 243 238 201 183 188 186 191 202 215 220 219 216 198 179 189 208 209 202 201 205 203 194 200 217 204 156 199 221 217 207 207 203 216 228 226 235 245 242 233 237 236 224 212 204 196 190
288 283 307 337 317 272 247 109 38 356 336 322 304 304 288 276 280 251 223 222 225 224 226 230 227 230 229 225 233 239 234 232 231 237 249 251 256 268 280 296 257 239 267 263 204 180 181 209 201 204 213 219 222 216 195 191 205 209 210 209 199 194 197 201 213 209 153 165 219 209 193 214 210 196 208 220 221 229 241 239 233 232 229 218 206 197 195 194
271 277 344 350 307 282 299 321 341 329 310 293 277 286 288 283 288 279 241 254 261 218 208 214 219 224 229 226 231 237 229 229 233 237 243 245 256 270 275 277 248 238 318 312 193 172 210 224 203 206 217 221 224 222 200 196 214 213 211 212 201 193 195 201 215 206 161 199 230 198 180 208 208 201 212 218 217 221 228 232 230 225 208 196 195 197 197 193
294 282 328 349 305 287 297 302 312 308 294 289 271 260 272 279 286 303 302 301 294 220 209 220 211 211 240 247 245 243 227 228 236 231 227 231 235 245 255 254 226 206 6 358 187 174 238 234 200 207 223 226 229 227 204 198 218 221 216 212 202 199 199 201 210 204 191 213 227 199 192 207 206 206 213 216 221 225 234 245 234 222 208 195 195 200 198 192
319 299 318 341 310 290 288 289 297 300 295 290 267 255 274 280 300 341 325 277 275 243 198 216 238 348 315 268 241 235 234 252 269 261 248 241 232 217 227 245 227 184 45 36 26 258 254 250 177 193 224 236 234 229 212 206 218 226 224 217 207 203 203 206 212 204 195 211 222 201 202 216 219 219 223 232 238 232 240 236 226 219 206 194 197 203 197 193
291 284 283 297 296 285 283 289 297 300 294 276 260 285 307 303 338 340 312 252 246 258 250 357 354 347 320 273 254 240 243 316 298 280 278 269 264 252 223 259 341 316 60 62 4 298 262 246 114 168 225 240 228 226 224 214 215 227 229 222 211 202 202 208 210 197 190 201 211 209 213 230 233 222 225 244 241 229 235 234 227 218 201 196 202 203 197 194
291 286 269 267 279 282 287 296 291 278 274 276 322 335 314 306 331 331 310 263 247 256 295 4 356 338 308 283 277 276 316 315 289 276 273 264 264 268 256 251 274 284 279 94 27 302 296 328 11 212 242 254 238 228 226 212 213 229 231 222 214 205 203 209 208 201 200 200 202 208 214 227 226 196 196 222 224 227 235 236 230 219 202 201 206 202 195 191